Dewpoint
76 75 75 70 71 72 72 72 73 73 73 68 69 67 61 63 66 66 69 74 74 73 72 72 72 72 72 72 70 68 70 71 70 70 71 70 70 70 69 68 68 69 69
76 77 76 71 74 72 72 72 70 70 70 69 71 66 62 63 65 68 67 72 74 73 73 72 73 72 72 72 72 71 69 69 70 71 70 71 71 70 69 68 68 69 70
77 74 75 75 76 77 75 75 73 71 69 66 66 66 63 65 63 64 65 66 71 73 73 74 74 74 72 71 72 72 72 72 71 72 71 71 72 72 71 71 71 70 71
78 78 74 73 73 75 74 73 73 70 70 66 66 64 66 63 63 64 66 67 68 67 72 74 73 74 72 72 71 72 72 73 73 73 73 73 73 72 73 73 72 73 73
77 78 76 75 76 73 75 72 73 73 67 65 64 64 66 64 61 60 63 67 68 67 68 74 74 73 71 71 71 71 72 73 73 73 73 73 72 73 73 73 73 73 73
76 78 76 77 75 72 75 74 74 71 70 66 57 63 64 64 66 65 63 64 69 68 67 70 72 71 73 71 71 70 70 71 72 72 72 73 73 73 73 73 73 73 73
77 79 78 73 76 75 75 74 73 72 68 67 66 66 66 64 63 64 61 61 63 64 66 69 70 69 70 73 72 71 70 69 69 70 70 70 71 72 72 72 72 71 72
77 77 77 76 76 75 76 76 75 73 68 67 68 64 62 64 62 61 64 60 63 62 62 69 69 71 71 71 71 72 72 72 71 71 71 71 71 72 71 71 70 70 70
76 77 77 77 76 76 75 76 75 74 71 67 70 69 62 61 64 64 63 64 63 64 64 65 68 70 71 65 67 67 70 70 69 68 67 67 68 68 68 67 67 67 67
76 76 77 77 78 77 75 75 76 75 74 68 67 66 70 69 65 61 65 65 65 61 65 65 65 64 67 66 66 66 66 66 66 64 61 61 64 65 64 64 65 65 65
75 75 76 77 78 77 76 76 77 76 76 71 68 67 68 68 68 65 63 65 65 66 65 64 64 65 66 63 62 64 66 65 64 64 64 63 62 60 59 58 58 60 59
74 76 77 77 78 76 77 77 77 77 76 75 72 71 67 66 65 65 63 63 63 65 65 65 63 66 66 66 62 65 66 65 64 64 64 64 63 62 59 59 59 60 62
72 74 77 77 76 77 77 76 77 77 76 75 74 71 70 70 69 68 65 64 63 64 65 65 66 66 64 67 64 65 67 65 64 63 63 64 64 65 65 64 64 63 64
70 75 75 76 76 76 76 78 76 75 76 75 75 73 71 70 69 68 67 66 63 62 66 64 66 67 67 67 64 68 65 66 65 65 64 64 64 65 66 66 67 67 67
71 75 75 75 75 76 76 77 75 76 76 75 75 75 72 69 70 69 68 67 65 62 62 66 64 65 68 66 67 65 65 67 67 66 66 65 66 66 66 66 66 66 66
74 77 75 75 76 76 77 77 76 76 75 75 73 73 73 68 68 70 68 68 67 64 62 64 66 65 64 65 67 67 66 67 67 67 66 65 65 65 66 66 66 66 66
78 74 77 76 76 75 76 77 75 75 75 75 75 74 72 71 69 69 68 68 67 66 62 64 68 69 68 66 65 66 68 67 65 65 65 65 64 65 65 65 65 65 65
75 77 76 76 76 75 76 75 75 73 75 75 74 74 72 70 72 72 71 68 67 68 66 66 67 68 68 69 70 70 66 61 66 65 64 64 64 64 64 64 64 64 64
77 75 77 76 75 75 75 76 75 75 73 75 75 74 73 72 71 68 70 70 68 69 70 66 66 69 69 69 69 70 70 69 67 66 63 63 63 63 62 62 62 61 60
75 76 76 76 76 75 75 75 75 75 75 74 75 75 74 72 71 71 69 68 70 66 67 68 65 65 68 68 68 66 67 68 67 64 62 62 63 63 62 61 61 60 58
76 76 76 76 76 76 74 75 75 75 75 75 74 75 75 73 70 70 68 70 67 70 67 64 64 65 65 66 65 66 66 66 68 67 64 62 62 62 61 62 62 62 61
76 76 76 76 76 75 70 68 73 74 75 75 75 74 75 72 70 67 67 66 68 66 66 63 62 62 64 66 67 65 65 65 62 69 66 65 66 66 61 62 63 63 61
77 77 76 76 76 76 67 66 68 74 74 75 75 75 74 73 72 71 66 65 65 65 65 66 64 65 67 68 68 68 67 66 64 67 65 63 65 64 62 59 61 61 61
77 76 77 77 77 76 67 64 66 73 74 74 75 75 75 74 74 72 70 68 67 67 66 66 67 67 70 71 71 70 69 68 68 67 67 61 64 63 62 59 59 60 57
77 77 77 77 77 77 65 63 64 72 72 73 74 75 75 75 70 65 71 69 68 68 64 63 63 65 64 64 68 68 66 65 63 63 66 63 63 62 58 60 58 57 55
77 76 77 77 74 77 68 61 64 73 71 71 73 74 67 73 66 61 71 71 69 68 68 66 66 64 64 65 63 68 66 63 62 62 64 62 62 58 54 57 58 52 51
Lifted_Index
-5 -5 -5 -4 -3 -2 -2 -3 -3 -3 -2 -2 -1 -1 0 1 -0 -1 -2 -3 -3 -3 -3 -4 -4 -4 -4 -4 -4 -4 -4 -4 -4 -4 -5 -5 -5 -5 -4 -3 -3 -4 -4
-5 -5 -5 -4 -4 -3 -3 -3 -3 -2 -2 -1 -1 -0 0 1 0 -1 -1 -2 -2 -3 -3 -3 -4 -4 -4 -4 -4 -4 -4 -4 -4 -4 -5 -5 -5 -5 -4 -4 -4 -4 -4
-5 -5 -5 -4 -4 -4 -4 -4 -3 -2 -1 -1 -1 -0 0 1 1 0 -1 -1 -2 -2 -3 -3 -4 -4 -4 -4 -4 -4 -4 -4 -4 -4 -5 -5 -5 -5 -5 -5 -5 -5 -5
-5 -5 -5 -4 -4 -4 -4 -4 -3 -2 -1 -0 0 0 0 1 1 1 -0 -1 -1 -2 -2 -3 -3 -4 -4 -4 -4 -4 -4 -4 -4 -5 -5 -5 -5 -5 -5 -5 -5 -6 -6
-5 -5 -5 -5 -4 -4 -4 -4 -4 -2 -1 0 1 0 0 1 1 1 0 -1 -1 -1 -2 -3 -3 -3 -3 -3 -3 -4 -4 -4 -5 -5 -5 -5 -5 -5 -5 -5 -5 -5 -6
-6 -6 -5 -5 -4 -4 -4 -4 -3 -2 -0 1 1 1 0 1 1 1 1 -0 -1 -1 -1 -2 -2 -3 -3 -3 -3 -3 -3 -4 -4 -4 -4 -4 -4 -4 -4 -4 -4 -4 -4
-6 -6 -5 -4 -4 -4 -4 -4 -3 -2 0 1 1 0 0 1 0 0 1 1 1 0 -0 -1 -2 -2 -2 -2 -3 -3 -3 -3 -3 -3 -4 -4 -4 -4 -3 -3 -3 -3 -3
-6 -6 -5 -5 -4 -4 -4 -4 -4 -2 -1 0 -0 -0 0 0 1 1 1 2 2 2 1 -1 -2 -2 -2 -1 -1 -1 -2 -2 -2 -2 -2 -2 -2 -3 -2 -2 -2 -2 -2
-6 -6 -5 -5 -5 -4 -4 -4 -4 -3 -2 -0 -0 -0 -0 -0 0 1 1 2 2 2 2 1 -0 -1 -0 1 2 2 1 1 1 1 1 1 0 -0 0 0 1 1 0
-6 -6 -6 -6 -5 -5 -4 -4 -5 -4 -3 -1 -0 -0 -0 -1 -0 0 1 1 1 2 2 2 1 1 1 2 3 4 4 4 4 4 4 4 3 3 3 3 3 3 3
-6 -6 -6 -6 -6 -5 -5 -5 -5 -5 -4 -2 -1 -0 -0 -1 -1 -0 -0 0 1 1 1 2 2 2 2 2 3 4 5 6 5 5 5 5 5 5 5 4 4 4 4
-6 -6 -6 -6 -6 -6 -5 -5 -5 -5 -5 -4 -3 -2 -1 -1 -1 -1 -1 -0 0 1 1 2 2 2 2 2 3 4 5 5 6 5 5 5 5 5 4 4 4 3 3
-5 -6 -6 -6 -6 -6 -6 -6 -6 -6 -6 -5 -4 -3 -2 -2 -2 -1 -0 -0 0 1 1 1 2 2 2 2 2 3 4 4 5 5 5 5 5 5 4 4 3 3 2
-4 -5 -6 -6 -6 -6 -6 -6 -6 -6 -6 -6 -5 -4 -3 -3 -2 -1 -1 -0 0 0 0 1 1 1 1 1 2 2 3 4 4 5 5 5 5 5 4 4 3 3 2
-4 -5 -6 -6 -6 -6 -7 -7 -7 -7 -7 -6 -6 -5 -4 -3 -2 -2 -1 -1 -0 0 0 0 1 1 1 1 1 2 2 3 3 4 4 5 5 5 4 4 4 3 3
-5 -6 -7 -7 -7 -7 -7 -7 -7 -7 -7 -7 -6 -6 -4 -3 -2 -2 -2 -1 -0 0 0 0 0 0 0 0 1 1 1 2 3 3 4 4 5 5 5 4 4 3 2
-7 -7 -8 -8 -7 -7 -7 -7 -7 -7 -7 -7 -7 -6 -5 -4 -3 -3 -2 -1 -1 -0 0 -0 -1 -1 -0 -0 -0 0 0 1 2 2 2 3 4 4 4 4 4 3 2
-8 -8 -8 -8 -8 -7 -7 -7 -7 -7 -7 -8 -7 -7 -6 -5 -4 -4 -3 -2 -2 -1 -1 -1 -2 -2 -2 -1 -2 -1 -1 -0 0 1 1 2 3 4 4 4 3 3 3
-8 -8 -9 -8 -8 -7 -7 -7 -7 -7 -8 -8 -8 -7 -6 -6 -5 -4 -4 -3 -3 -3 -3 -2 -2 -2 -2 -3 -3 -3 -2 -2 -1 -0 1 2 2 3 3 3 3 3 2
-8 -9 -9 -8 -8 -8 -7 -7 -7 -7 -8 -8 -8 -8 -7 -6 -6 -5 -4 -4 -4 -3 -3 -3 -2 -2 -2 -3 -3 -3 -3 -3 -2 -1 -0 1 2 2 2 2 2 2 2
-9 -9 -9 -9 -8 -8 -8 -7 -7 -7 -8 -8 -8 -8 -7 -7 -6 -5 -4 -4 -4 -3 -3 -3 -2 -2 -2 -2 -3 -2 -2 -2 -2 -2 -1 -0 1 1 1 1 2 2 1
-9 -9 -9 -9 -9 -8 -8 -8 -7 -7 -8 -8 -8 -7 -7 -7 -6 -6 -5 -4 -4 -3 -3 -2 -2 -2 -2 -2 -3 -3 -2 -2 -1 -2 -1 -1 -0 0 1 1 2 2 2
-9 -9 -9 -9 -9 -9 -9 -8 -8 -7 -7 -8 -8 -8 -8 -7 -7 -6 -6 -5 -4 -3 -3 -2 -2 -2 -3 -3 -4 -4 -3 -2 -2 -2 -1 -1 -1 -0 1 2 3 3 3
-10 -9 -9 -9 -9 -9 -9 -9 -8 -8 -7 -8 -8 -8 -8 -8 -7 -7 -6 -6 -5 -3 -3 -3 -3 -3 -3 -4 -4 -4 -4 -3 -2 -2 -1 -1 -1 -1 1 2 3 4 4
-10 -10 -9 -9 -9 -9 -9 -9 -9 -8 -8 -8 -8 -8 -8 -8 -8 -7 -7 -6 -5 -4 -3 -3 -3 -3 -4 -4 -4 -4 -4 -3 -2 -2 -2 -1 -1 -0 1 3 4 5 5
-10 -10 -10 -9 -9 -10 -10 -9 -9 -8 -8 -8 -8 -8 -9 -9 -8 -8 -7 -6 -6 -5 -4 -3 -3 -3 -4 -4 -4 -4 -3 -2 -2 -2 -2 -1 -1 0 2 3 4 5 6